EN

Hourly Weather Trzcinica

Today, 18 April, Sunday

Time Temperature Precipitation Wind Pressure Humidity
00:00 +5°C° 0 mm 1 mps 748 mmHg 94%
01:00 +5°C° 0 mm 1 mps 747 mmHg 94%
02:00 +5°C° 0 mm 1 mps 747 mmHg 94%
03:00 +5°C° 0 mm 1 mps 747 mmHg 94%
04:00 +5°C° 0 mm 1 mps 747 mmHg 94%
05:00 +5°C° 0.1 mm 0 mps 747 mmHg 93%
06:00 +5°C° 0.1 mm 0 mps 747 mmHg 92%
07:00 +6°C° 0 mm 1 mps 747 mmHg 92%
08:00 +7°C° 0 mm 1 mps 747 mmHg 88%
09:00 +7°C° 0 mm 1 mps 747 mmHg 84%
10:00 +8°C° 0 mm 1 mps 747 mmHg 80%
11:00 +8°C° 0.1 mm 2 mps 747 mmHg 76%
12:00 +8°C° 0.1 mm 2 mps 747 mmHg 73%
13:00 +9°C° 0 mm 2 mps 747 mmHg 70%
14:00 +9°C° 0 mm 2 mps 747 mmHg 69%
15:00 +9°C° 0 mm 2 mps 747 mmHg 67%
16:00 +9°C° 0 mm 2 mps 747 mmHg 66%
17:00 +9°C° 0 mm 2 mps 747 mmHg 70%
18:00 +8°C° 0 mm 2 mps 747 mmHg 74%
19:00 +7°C° 0 mm 2 mps 748 mmHg 77%
20:00 +7°C° 0 mm 2 mps 748 mmHg 78%
21:00 +8°C° 0 mm 1 mps 748 mmHg 78%
22:00 +8°C° 0 mm 1 mps 748 mmHg 78%
23:00 +8°C° 0 mm 1 mps 748 mmHg 78%

Tomorrow, 19 April, Monday

Time Temperature Precipitation Wind Pressure Humidity
00:00 +8°C° 0 mm 1 mps 747 mmHg 78%
01:00 +7°C° 0 mm 2 mps 747 mmHg 78%
02:00 +7°C° 0 mm 2 mps 747 mmHg 81%
03:00 +7°C° 0 mm 2 mps 747 mmHg 84%
04:00 +6°C° 0 mm 2 mps 747 mmHg 87%
05:00 +7°C° 0.3 mm 2 mps 747 mmHg 89%
06:00 +8°C° 0.3 mm 1 mps 747 mmHg 92%
07:00 +8°C° 0.3 mm 1 mps 747 mmHg 94%
08:00 +8°C° 1.1 mm 1 mps 746 mmHg 93%
09:00 +9°C° 1.1 mm 1 mps 746 mmHg 92%
10:00 +9°C° 1.1 mm 1 mps 746 mmHg 92%
11:00 +9°C° 0.3 mm 2 mps 746 mmHg 88%
12:00 +10°C° 0.3 mm 2 mps 746 mmHg 84%
13:00 +12°C° 0.3 mm 2 mps 746 mmHg 80%
14:00 +12°C° 0.2 mm 2 mps 746 mmHg 77%
15:00 +12°C° 0.2 mm 3 mps 746 mmHg 74%
16:00 +12°C° 0.2 mm 3 mps 745 mmHg 70%
17:00 +11°C° 0.1 mm 3 mps 745 mmHg 72%
18:00 +10°C° 0.1 mm 3 mps 745 mmHg 75%
19:00 +10°C° 0.1 mm 3 mps 745 mmHg 77%
20:00 +9°C° 0 mm 3 mps 746 mmHg 79%
21:00 +9°C° 0 mm 3 mps 746 mmHg 80%
22:00 +8°C° 0 mm 3 mps 746 mmHg 81%
23:00 +8°C° 0 mm 2 mps 746 mmHg 81%

Day after tomorrow, 20 April, Tuesday

Time Temperature Precipitation Wind Pressure Humidity
00:00 +8°C° 0 mm 2 mps 745 mmHg 81%
01:00 +8°C° 0 mm 2 mps 745 mmHg 80%
02:00 +8°C° 0 mm 2 mps 745 mmHg 81%
03:00 +7°C° 0 mm 2 mps 745 mmHg 81%
04:00 +7°C° 0 mm 2 mps 745 mmHg 82%
05:00 +7°C° 0 mm 2 mps 745 mmHg 81%
06:00 +8°C° 0 mm 2 mps 745 mmHg 80%
07:00 +8°C° 0 mm 2 mps 745 mmHg 79%
08:00 +9°C° 0.1 mm 3 mps 745 mmHg 72%
09:00 +10°C° 0.1 mm 3 mps 745 mmHg 65%
10:00 +12°C° 0.1 mm 3 mps 745 mmHg 58%
11:00 +12°C° 0.1 mm 3 mps 745 mmHg 56%
12:00 +12°C° 0.1 mm 3 mps 745 mmHg 53%
13:00 +14°C° 0.1 mm 2 mps 744 mmHg 51%
14:00 +14°C° 0 mm 2 mps 744 mmHg 50%
15:00 +14°C° 0 mm 2 mps 744 mmHg 50%
16:00 +14°C° 0 mm 1 mps 744 mmHg 50%
17:00 +12°C° 0 mm 1 mps 744 mmHg 56%
18:00 +11°C° 0 mm 1 mps 744 mmHg 62%
19:00 +10°C° 0 mm 1 mps 744 mmHg 67%
20:00 +9°C° 0 mm 1 mps 744 mmHg 71%
21:00 +9°C° 0 mm 1 mps 744 mmHg 74%
22:00 +8°C° 0 mm 1 mps 744 mmHg 77%
23:00 +8°C° 0.1 mm 1 mps 743 mmHg 81%

21 April, Wednesday

Time Temperature Precipitation Wind Pressure Humidity
00:00 +7°C° 0.1 mm 2 mps 743 mmHg 84%
01:00 +6°C° 0.1 mm 2 mps 743 mmHg 88%
02:00 +6°C° 0.1 mm 2 mps 743 mmHg 89%
03:00 +6°C° 0.1 mm 2 mps 743 mmHg 91%
04:00 +6°C° 0.1 mm 2 mps 743 mmHg 93%
05:00 +7°C° 0.1 mm 2 mps 743 mmHg 90%
06:00 +7°C° 0.1 mm 3 mps 743 mmHg 87%
07:00 +8°C° 0.1 mm 3 mps 743 mmHg 84%
08:00 +9°C° 0.2 mm 3 mps 743 mmHg 79%
09:00 +10°C° 0.2 mm 4 mps 743 mmHg 74%
10:00 +12°C° 0.2 mm 4 mps 743 mmHg 70%
11:00 +12°C° 0.4 mm 5 mps 743 mmHg 66%
12:00 +13°C° 0.4 mm 5 mps 742 mmHg 62%
13:00 +14°C° 0.4 mm 5 mps 742 mmHg 59%
14:00 +14°C° 0.6 mm 5 mps 742 mmHg 62%
15:00 +13°C° 0.6 mm 5 mps 742 mmHg 65%
16:00 +13°C° 0.6 mm 5 mps 741 mmHg 69%
17:00 +12°C° 0.4 mm 4 mps 741 mmHg 73%
18:00 +10°C° 0.4 mm 3 mps 741 mmHg 78%
19:00 +9°C° 0.4 mm 3 mps 741 mmHg 83%
20:00 +8°C° 0 mm 3 mps 742 mmHg 86%
21:00 +6°C° 0 mm 4 mps 742 mmHg 89%
22:00 +6°C° 0 mm 4 mps 743 mmHg 92%
23:00 +5°C° 0 mm 4 mps 743 mmHg 91%

22 April, Thursday

Time Temperature Precipitation Wind Pressure Humidity
00:00 +5°C° 0 mm 4 mps 743 mmHg 90%
01:00 +4°C° 0 mm 3 mps 743 mmHg 89%
02:00 +4°C° 0 mm 4 mps 744 mmHg 88%
03:00 +3°C° 0 mm 4 mps 744 mmHg 87%
04:00 +1°C° 0 mm 4 mps 744 mmHg 86%
05:00 +1°C° 0 mm 5 mps 744 mmHg 83%
06:00 +1°C° 0 mm 6 mps 745 mmHg 79%
07:00 +1°C° 0 mm 6 mps 745 mmHg 75%
08:00 +2°C° 0 mm 7 mps 745 mmHg 68%
09:00 +3°C° 0 mm 7 mps 745 mmHg 61%
10:00 +4°C° 0 mm 7 mps 745 mmHg 54%
11:00 +5°C° 0 mm 7 mps 745 mmHg 52%
12:00 +5°C° 0 mm 7 mps 745 mmHg 50%
13:00 +6°C° 0 mm 7 mps 745 mmHg 47%
14:00 +6°C° 0 mm 7 mps 745 mmHg 48%
15:00 +6°C° 0 mm 7 mps 746 mmHg 48%
16:00 +6°C° 0 mm 7 mps 746 mmHg 49%
17:00 +5°C° 0.1 mm 6 mps 746 mmHg 56%
18:00 +5°C° 0.1 mm 5 mps 746 mmHg 62%
19:00 +3°C° 0.1 mm 4 mps 746 mmHg 68%
20:00 +3°C° 0 mm 4 mps 746 mmHg 72%
21:00 +1°C° 0 mm 4 mps 746 mmHg 75%
22:00 +1°C° 0 mm 4 mps 747 mmHg 78%
23:00 +1°C° 0 mm 4 mps 747 mmHg 81%

23 April, Friday

Time Temperature Precipitation Wind Pressure Humidity
00:00 +1°C° 0 mm 5 mps 747 mmHg 83%
01:00 +1°C° 0 mm 5 mps 747 mmHg 85%
02:00 0°C° 0 mm 5 mps 747 mmHg 87%
03:00 0°C° 0 mm 5 mps 747 mmHg 89%
04:00 -1°C° 0 mm 5 mps 748 mmHg 90%
05:00 -1°C° 0 mm 6 mps 748 mmHg 86%
06:00 +1°C° 0 mm 6 mps 749 mmHg 82%
07:00 +1°C° 0 mm 6 mps 749 mmHg 77%
08:00 +3°C° 0 mm 7 mps 749 mmHg 71%
09:00 +4°C° 0 mm 7 mps 750 mmHg 65%
10:00 +5°C° 0 mm 7 mps 750 mmHg 59%
11:00 +6°C° 0 mm 7 mps 750 mmHg 56%
12:00 +8°C° 0 mm 6 mps 750 mmHg 54%
13:00 +8°C° 0 mm 6 mps 750 mmHg 51%
14:00 +8°C° 0 mm 6 mps 750 mmHg 52%
15:00 +8°C° 0 mm 6 mps 750 mmHg 53%
16:00 +8°C° 0 mm 6 mps 750 mmHg 55%
17:00 +7°C° 0 mm 5 mps 750 mmHg 62%
18:00 +5°C° 0 mm 4 mps 750 mmHg 69%
19:00 +4°C° 0 mm 3 mps 750 mmHg 76%
20:00 +4°C° 0 mm 3 mps 750 mmHg 78%
21:00 +3°C° 0 mm 3 mps 749 mmHg 79%
22:00 +3°C° 0 mm 3 mps 749 mmHg 81%
23:00 +3°C° 0 mm 3 mps 749 mmHg 80%
Show more

We Need Your Consent

Meteoprog and our Service Providers may store and access personal data such as cookies, device identifiers or other similar technologies on your device and process such data to personalise content and ads, as well as provide social media features and to analyse the traffic.

  • Store and/or access information on your device

    Cookies, device identifiers or other information can be stored or accessed on your device for the purposes indicated above.

  • Personalised ads and content, ad and content measurement, audience insights, and products development

    Ads and content can be personalised based on a profile. More data can be added to better personalise ads and content. Ad and content performance can be measured. Insights about the audience who saw the ads and content can be derived. Such data can be used to develop or improve user’s experience, systems and software.

By clicking ‘I Agree’ you will allow the use of indicated cookies, device identifiers, web beacons or other similar technologies. Your settings can be changed in the browser on your device.

For certain purposes, legitimate interests may be relied on, rather than consent. You can read more about this in our Privacy and Cookie Policy.